When you browse on this site, cookies collect data to enhance your experience and personalize the content and advertising you see.
Visit our Privacy Policy to learn more. By continuing to use the site, you agree to this use of cookies and data.
  • In United Kingdom
  • List of Countries
  • For 7 days
  • Water Temperature
  • Weather Map
  • Weather Widgets
  • user-avatar
    Login

    Hourly Weather Worcester

    Today, 17 November, Sunday

    Time Temperature Precipitation Wind Pressure Humidity
    00:00 +7°C° 0 mm 1 mps 751 mmHg 92%
    01:00 +7°C° 0 mm 1 mps 751 mmHg 91%
    02:00 +6°C° 0 mm 0 mps 751 mmHg 91%
    03:00 +6°C° 0 mm 0 mps 751 mmHg 91%
    04:00 +6°C° 0 mm 0 mps 752 mmHg 92%
    05:00 +6°C° 0 mm 0 mps 752 mmHg 92%
    06:00 +6°C° 0 mm 0 mps 752 mmHg 94%
    07:00 +6°C° 0.1 mm 0 mps 753 mmHg 94%
    08:00 +6°C° 0.1 mm 0 mps 753 mmHg 94%
    09:00 +6°C° 0.1 mm 0 mps 754 mmHg 93%
    10:00 +8°C° 0.1 mm 1 mps 754 mmHg 92%
    11:00 +8°C° 0.1 mm 1 mps 754 mmHg 91%
    12:00 +8°C° 0.1 mm 2 mps 754 mmHg 90%
    13:00 +8°C° 0 mm 2 mps 754 mmHg 90%
    14:00 +8°C° 0 mm 2 mps 754 mmHg 90%
    15:00 +8°C° 0 mm 3 mps 755 mmHg 89%
    16:00 +7°C° 0.1 mm 3 mps 755 mmHg 91%
    17:00 +7°C° 0.1 mm 3 mps 755 mmHg 93%
    18:00 +7°C° 0.1 mm 3 mps 756 mmHg 94%
    19:00 +6°C° 0.2 mm 4 mps 756 mmHg 93%
    20:00 +6°C° 0.2 mm 4 mps 756 mmHg 92%
    21:00 +6°C° 0.2 mm 5 mps 756 mmHg 90%
    22:00 +5°C° 0 mm 4 mps 757 mmHg 91%
    23:00 +5°C° 0 mm 4 mps 757 mmHg 92%

    Tomorrow, 18 November, Monday

    Time Temperature Precipitation Wind Pressure Humidity
    00:00 +4°C° 0 mm 4 mps 757 mmHg 93%
    01:00 +3°C° 0 mm 3 mps 757 mmHg 93%
    02:00 +3°C° 0 mm 3 mps 757 mmHg 94%
    03:00 +3°C° 0 mm 3 mps 757 mmHg 94%
    04:00 +2°C° 0 mm 3 mps 757 mmHg 94%
    05:00 +2°C° 0 mm 3 mps 757 mmHg 94%
    06:00 +2°C° 0 mm 3 mps 758 mmHg 94%
    07:00 +3°C° 0 mm 2 mps 758 mmHg 93%
    08:00 +3°C° 0 mm 2 mps 758 mmHg 93%
    09:00 +3°C° 0 mm 2 mps 758 mmHg 92%
    10:00 +5°C° 0 mm 2 mps 758 mmHg 88%
    11:00 +5°C° 0 mm 3 mps 758 mmHg 84%
    12:00 +7°C° 0 mm 3 mps 758 mmHg 81%
    13:00 +6°C° 0 mm 2 mps 757 mmHg 81%
    14:00 +6°C° 0 mm 2 mps 757 mmHg 82%
    15:00 +6°C° 0 mm 2 mps 757 mmHg 83%
    16:00 +6°C° 0 mm 1 mps 757 mmHg 85%
    17:00 +5°C° 0 mm 1 mps 757 mmHg 87%
    18:00 +3°C° 0 mm 0 mps 757 mmHg 89%
    19:00 +3°C° 0 mm 0 mps 757 mmHg 89%
    20:00 +3°C° 0 mm 0 mps 757 mmHg 89%
    21:00 +3°C° 0 mm 0 mps 756 mmHg 89%
    22:00 +3°C° 0 mm 0 mps 756 mmHg 89%
    23:00 +3°C° 0 mm 0 mps 756 mmHg 89%

    Day after tomorrow, 19 November, Tuesday

    Time Temperature Precipitation Wind Pressure Humidity
    00:00 +3°C° 0 mm 0 mps 756 mmHg 89%
    01:00 +3°C° 0 mm 0 mps 755 mmHg 90%
    02:00 +3°C° 0 mm 0 mps 755 mmHg 90%
    03:00 +3°C° 0 mm 1 mps 755 mmHg 91%
    04:00 +3°C° 0 mm 1 mps 755 mmHg 92%
    05:00 +3°C° 0 mm 1 mps 755 mmHg 92%
    06:00 +3°C° 0 mm 1 mps 755 mmHg 93%
    07:00 +4°C° 0 mm 1 mps 754 mmHg 92%
    08:00 +4°C° 0 mm 1 mps 754 mmHg 91%
    09:00 +5°C° 0 mm 1 mps 754 mmHg 90%
    10:00 +5°C° 0 mm 2 mps 753 mmHg 89%
    11:00 +5°C° 0 mm 3 mps 753 mmHg 87%
    12:00 +7°C° 0 mm 3 mps 753 mmHg 85%
    13:00 +7°C° 0 mm 3 mps 752 mmHg 87%
    14:00 +7°C° 0 mm 3 mps 752 mmHg 89%
    15:00 +7°C° 0 mm 3 mps 751 mmHg 90%
    16:00 +6°C° 0.1 mm 4 mps 751 mmHg 91%
    17:00 +6°C° 0.1 mm 4 mps 751 mmHg 92%
    18:00 +6°C° 0.1 mm 4 mps 751 mmHg 93%
    19:00 +7°C° 0.5 mm 5 mps 751 mmHg 92%
    20:00 +7°C° 0.5 mm 5 mps 751 mmHg 92%
    21:00 +7°C° 0.5 mm 6 mps 751 mmHg 91%
    22:00 +7°C° 0.8 mm 6 mps 751 mmHg 92%
    23:00 +7°C° 0.8 mm 6 mps 751 mmHg 92%

    20 November, Wednesday

    Time Temperature Precipitation Wind Pressure Humidity
    00:00 +7°C° 0.8 mm 6 mps 751 mmHg 92%
    01:00 +7°C° 0.5 mm 5 mps 751 mmHg 93%
    02:00 +7°C° 0.5 mm 5 mps 751 mmHg 93%
    03:00 +7°C° 0.5 mm 5 mps 751 mmHg 93%
    04:00 +7°C° 0.4 mm 5 mps 750 mmHg 92%
    05:00 +7°C° 0.4 mm 6 mps 750 mmHg 91%
    06:00 +7°C° 0.4 mm 6 mps 750 mmHg 90%
    07:00 +5°C° 0.1 mm 6 mps 750 mmHg 89%
    08:00 +5°C° 0.1 mm 6 mps 750 mmHg 88%
    09:00 +5°C° 0.1 mm 6 mps 750 mmHg 87%
    10:00 +5°C° 0 mm 6 mps 750 mmHg 85%
    11:00 +7°C° 0 mm 6 mps 750 mmHg 83%
    12:00 +6°C° 0 mm 7 mps 750 mmHg 81%
    13:00 +7°C° 0 mm 6 mps 750 mmHg 82%
    14:00 +5°C° 0 mm 6 mps 750 mmHg 83%
    15:00 +6°C° 0 mm 5 mps 749 mmHg 84%
    16:00 +6°C° 0 mm 5 mps 749 mmHg 85%
    17:00 +5°C° 0 mm 5 mps 749 mmHg 87%
    18:00 +5°C° 0 mm 5 mps 749 mmHg 89%
    19:00 +5°C° 0 mm 5 mps 749 mmHg 89%
    20:00 +5°C° 0 mm 5 mps 749 mmHg 90%
    21:00 +3°C° 0 mm 5 mps 749 mmHg 90%
    22:00 +5°C° 0 mm 5 mps 748 mmHg 90%
    23:00 +6°C° 0 mm 5 mps 748 mmHg 89%

    21 November, Thursday

    Time Temperature Precipitation Wind Pressure Humidity
    00:00 +5°C° 0 mm 6 mps 748 mmHg 88%
    01:00 +5°C° 0 mm 6 mps 748 mmHg 88%
    02:00 +7°C° 0 mm 6 mps 747 mmHg 88%
    03:00 +7°C° 0 mm 6 mps 747 mmHg 88%
    04:00 +7°C° 0 mm 6 mps 747 mmHg 89%
    05:00 +7°C° 0 mm 6 mps 746 mmHg 91%
    06:00 +6°C° 0 mm 5 mps 746 mmHg 92%
    07:00 +5°C° 0 mm 6 mps 746 mmHg 91%
    08:00 +5°C° 0 mm 6 mps 746 mmHg 90%
    09:00 +5°C° 0 mm 7 mps 746 mmHg 88%
    10:00 +6°C° 0 mm 7 mps 746 mmHg 86%
    11:00 +6°C° 0 mm 7 mps 745 mmHg 83%
    12:00 +8°C° 0 mm 7 mps 745 mmHg 81%
    13:00 +8°C° 0 mm 6 mps 745 mmHg 81%
    14:00 +8°C° 0 mm 6 mps 744 mmHg 82%
    15:00 +8°C° 0 mm 5 mps 744 mmHg 82%
    16:00 +7°C° 0.2 mm 6 mps 744 mmHg 84%
    17:00 +7°C° 0.2 mm 6 mps 744 mmHg 86%
    18:00 +7°C° 0.2 mm 6 mps 744 mmHg 88%
    19:00 +7°C° 0.6 mm 5 mps 744 mmHg 89%
    20:00 +7°C° 0.6 mm 4 mps 744 mmHg 90%
    21:00 +7°C° 0.6 mm 4 mps 744 mmHg 91%
    22:00 +6°C° 0 mm 4 mps 745 mmHg 92%
    23:00 +6°C° 0 mm 4 mps 745 mmHg 93%

    22 November, Friday

    Time Temperature Precipitation Wind Pressure Humidity
    00:00 +5°C° 0 mm 4 mps 745 mmHg 94%
    01:00 +5°C° 0 mm 3 mps 745 mmHg 94%
    02:00 +5°C° 0 mm 3 mps 745 mmHg 94%
    03:00 +5°C° 0 mm 3 mps 745 mmHg 94%
    04:00 +5°C° 0 mm 3 mps 745 mmHg 94%
    05:00 +5°C° 0 mm 3 mps 746 mmHg 94%
    06:00 +5°C° 0 mm 4 mps 746 mmHg 94%
    07:00 +5°C° 0 mm 4 mps 746 mmHg 94%
    08:00 +6°C° 0 mm 4 mps 747 mmHg 93%
    09:00 +7°C° 0 mm 3 mps 747 mmHg 93%
    10:00 +7°C° 0 mm 4 mps 747 mmHg 90%
    11:00 +8°C° 0 mm 4 mps 748 mmHg 88%
    12:00 +8°C° 0 mm 4 mps 748 mmHg 85%
    13:00 +8°C° 0.1 mm 4 mps 748 mmHg 86%
    14:00 +8°C° 0.1 mm 4 mps 748 mmHg 86%
    15:00 +9°C° 0.1 mm 3 mps 748 mmHg 86%
    16:00 +9°C° 0 mm 3 mps 749 mmHg 88%
    17:00 +8°C° 0 mm 3 mps 749 mmHg 89%
    18:00 +7°C° 0 mm 3 mps 750 mmHg 91%
    19:00 +7°C° 0 mm 3 mps 750 mmHg 91%
    20:00 +7°C° 0 mm 3 mps 751 mmHg 91%
    21:00 +7°C° 0 mm 3 mps 751 mmHg 91%
    22:00 +7°C° 0 mm 2 mps 751 mmHg 92%
    23:00 +6°C° 0 mm 2 mps 752 mmHg 93%
    Show more